 day,  time,  air_temp(C),  RH(%),  ground_temp10cm(C),  ground_temp20cm(C),  ground_temp40cm(C),  precipitation(mm/h),  Solar_Radiation(MJ/m2h),  lack, 
 02/03/01, 01:00,   1.2,  99,   0.8,   1.2,   2.1,   0.0,  0.00, 
 02/03/01, 02:00,   1.5,  99,   0.8,   1.2,   2.1,   0.0,  0.00, 
 02/03/01, 03:00,   1.0,  99,   0.8,   1.2,   2.1,   0.0,  0.00, 
 02/03/01, 04:00,   0.7,  99,   0.8,   1.2,   2.1,   0.0,  0.00, 
 02/03/01, 05:00,   0.5,  99,   0.8,   1.2,   2.1,   0.0,  0.00, 
 02/03/01, 06:00,   0.2,  99,   0.8,   1.2,   2.1,   0.0,  0.00, 
 02/03/01, 07:00,  -0.2,  99,   0.8,   1.2,   2.1,   0.0,  0.00, 
 02/03/01, 08:00,   0.0,  99,   0.8,   1.2,   2.1,   0.0,  0.17, 
 02/03/01, 09:00,   0.6,  99,   0.8,   1.2,   2.1,   0.0,  0.42, 
 02/03/01, 10:00,   0.8,  99,   0.8,   1.2,   2.1,   0.0,  0.93, 
 02/03/01, 11:00,   0.6,  99,   0.8,   1.2,   2.1,   0.0,  0.55, 
 02/03/01, 12:00,   2.5,  90,   0.9,   1.2,   2.1,   0.0,  1.13, 
 02/03/01, 13:00,   2.7,  86,   0.9,   1.2,   2.1,   0.0,  1.23, 
 02/03/01, 14:00,   2.8,  84,   0.9,   1.2,   2.1,   0.0,  1.12, 
 02/03/01, 15:00,   4.1,  74,   0.9,   1.2,   2.1,   0.0,  1.58, 
 02/03/01, 16:00,   3.1,  81,   0.9,   1.2,   2.1,   0.0,  1.11, 
 02/03/01, 17:00,   2.0,  87,   0.9,   1.2,   2.1,   0.0,  0.56, 
 02/03/01, 18:00,   1.1,  91,   0.9,   1.2,   2.0,   0.0,  0.05, 
 02/03/01, 19:00,   0.5,  95,   0.9,   1.2,   2.0,   0.0,  0.00, 
 02/03/01, 20:00,   0.5,  95,   0.8,   1.2,   2.0,   0.0,  0.00, 
 02/03/01, 21:00,   0.0,  98,   0.9,   1.2,   2.0,   0.0,  0.00, 
 02/03/01, 22:00,   1.2,  89,   0.8,   1.2,   2.0,   0.0,  0.00, 
 02/03/01, 23:00,   0.2,  95,   0.8,   1.2,   2.0,   0.0,  0.00, 
 02/03/02, 00:00,   0.4,  95,   0.8,   1.2,   2.0,   0.0,  0.00, 
 02/03/02, 01:00,   1.6,  88,   0.8,   1.2,   2.0,   0.0,  0.00, 
 02/03/02, 02:00,   1.1,  90,   0.8,   1.2,   2.0,   0.0,  0.00, 
 02/03/02, 03:00,   0.9,  91,   0.8,   1.2,   2.0,   0.0,  0.00, 
 02/03/02, 04:00,   0.5,  90,   0.8,   1.2,   2.0,   0.0,  0.00, 
 02/03/02, 05:00,   0.2,  85,   0.8,   1.2,   2.0,   0.0,  0.00, 
 02/03/02, 06:00,   0.0,  82,   0.8,   1.2,   2.0,   0.0,  0.00, 
 02/03/02, 07:00,  -1.3,  92,   0.8,   1.2,   2.0,   0.0,  0.02, 
 02/03/02, 08:00,   1.3,  82,   0.8,   1.2,   2.0,   0.0,  0.63, 
 02/03/02, 09:00,   1.5,  84,   0.8,   1.2,   2.0,   0.0,  0.68, 
 02/03/02, 10:00,   1.7,  91,   0.8,   1.2,   2.0,   0.0,  1.40, 
 02/03/02, 11:00,   1.5,  81,   0.8,   1.2,   2.0,   0.0,  1.10, 
 02/03/02, 12:00,   2.8,  66,   0.8,   1.2,   2.0,   0.0,  2.04, 
 02/03/02, 13:00,   3.8,  60,   0.8,   1.2,   2.0,   0.0,  2.44, 
 02/03/02, 14:00,   3.4,  55,   0.8,   1.2,   2.0,   0.0,  1.74, 
 02/03/02, 15:00,   2.5,  60,   0.8,   1.2,   2.0,   0.0,  1.24, 
 02/03/02, 16:00,   0.5,  89,   0.8,   1.2,   2.0,   0.0,  0.68, 
 02/03/02, 17:00,  -0.1,  90,   0.8,   1.2,   2.0,   0.0,  0.31, 
 02/03/02, 18:00,  -1.7,  99,   0.8,   1.2,   2.0,   0.0,  0.02, 
 02/03/02, 19:00,  -2.1,  99,   0.8,   1.2,   2.0,   0.0,  0.00, 
 02/03/02, 20:00,  -2.7,  99,   0.8,   1.2,   2.0,   0.0,  0.00, 
 02/03/02, 21:00,  -4.3,  99,   0.8,   1.1,   2.0,   0.0,  0.00, 
 02/03/02, 22:00,  -4.8,  99,   0.8,   1.2,   2.0,   0.0,  0.00, 
 02/03/02, 23:00,  -5.0,  99,   0.8,   1.1,   2.0,   0.0,  0.00, 
 02/03/03, 00:00,  -5.2,  99,   0.8,   1.2,   2.0,   0.0,  0.00, 
 02/03/03, 01:00,  -5.4,  99,   0.8,   1.2,   2.0,   0.0,  0.00, 
 02/03/03, 02:00,  -5.8,  98,   0.8,   1.2,   2.0,   0.0,  0.00, 
 02/03/03, 03:00,  -6.4,  97,   0.8,   1.1,   2.0,   0.0,  0.00, 
 02/03/03, 04:00,  -6.9,  97,   0.7,   1.2,   2.0,   0.0,  0.00, 
 02/03/03, 05:00,  -7.1,  94,   0.7,   1.1,   2.0,   0.0,  0.00, 
 02/03/03, 06:00,  -7.2,  95,   0.7,   1.1,   2.0,   0.0,  0.00, 
 02/03/03, 07:00,  -7.4,  96,   0.7,   1.1,   2.0,   0.0,  0.00, 
 02/03/03, 08:00,  -7.1,  95,   0.7,   1.1,   2.0,   0.0,  0.23, 
 02/03/03, 09:00,  -6.7,  89,   0.7,   1.1,   2.0,   0.0,  1.02, 
 02/03/03, 10:00,  -6.1,  90,   0.7,   1.1,   2.0,   0.0,  1.96, 
 02/03/03, 11:00,  -5.1,  84,   0.7,   1.1,   2.0,   0.0,  2.67, 
 02/03/03, 12:00,  -2.8,  69,   0.7,   1.2,   2.0,   0.0,  3.07, 
 02/03/03, 13:00,  -1.4,  62,   0.7,   1.2,   2.0,   0.0,  2.94, 
 02/03/03, 14:00,  -1.5,  66,   0.8,   1.2,   2.0,   0.0,  2.72, 
 02/03/03, 15:00,  -1.6,  63,   0.7,   1.2,   2.0,   0.0,  2.25, 
 02/03/03, 16:00,  -2.8,  67,   0.7,   1.1,   2.0,   0.0,  1.60, 
 02/03/03, 17:00,  -3.6,  70,   0.7,   1.0,   2.0,   0.0,  0.84, 
 02/03/03, 18:00,  -5.0,  78,   0.7,   1.0,   2.0,   0.0,  0.11, 
 02/03/03, 19:00,  -5.9,  85,   0.7,   1.0,   2.0,   0.0,  0.00, 
 02/03/03, 20:00,  -7.1,  90,   0.7,   1.0,   2.0,   0.0,  0.00, 
 02/03/03, 21:00,  -7.2,  94,   0.7,   1.0,   2.0,   0.0,  0.00, 
 02/03/03, 22:00,  -7.9,  93,   0.7,   1.0,   2.0,   0.0,  0.00, 
 02/03/03, 23:00,  -8.0,  93,   0.7,   1.0,   2.0,   0.0,  0.00, 
 02/03/04, 00:00,  -7.1,  88,   0.7,   1.0,   2.0,   0.0,  0.00, 
 02/03/04, 01:00,  -7.6,  92,   0.7,   1.1,   2.0,   0.0,  0.00, 
 02/03/04, 02:00,  -8.3,  92,   0.7,   1.1,   2.0,   0.0,  0.00, 
 02/03/04, 03:00,  -8.1,  87,   0.7,   1.0,   2.0,   0.0,  0.00, 
 02/03/04, 04:00,  -8.8,  94,   0.7,   1.0,   2.0,   0.0,  0.00, 
 02/03/04, 05:00,  -8.3,  73,   0.7,   1.0,   2.0,   0.0,  0.00, 
 02/03/04, 06:00,  -8.6,  78,   0.7,   1.0,   2.0,   0.0,  0.00, 
 02/03/04, 07:00,  -8.6,  70,   0.6,   1.0,   2.0,   0.0,  0.01, 
 02/03/04, 08:00,  -4.1,  59,   0.6,   1.0,   2.0,   0.0,  1.21, 
 02/03/04, 09:00,  -2.7,  51,   0.6,   1.0,   2.0,   0.0,  2.13, 
 02/03/04, 10:00,  -0.9,  53,   0.6,   1.0,   2.0,   0.0,  2.63, 
 02/03/04, 11:00,   0.6,  49,   0.6,   1.0,   2.0,   0.0,  2.87, 
 02/03/04, 12:00,   1.6,  43,   0.6,   1.1,   2.0,   0.0,  2.91, 
 02/03/04, 13:00,   2.6,  42,   0.6,   1.0,   2.0,   0.0,  2.95, 
 02/03/04, 14:00,   2.0,  49,   0.6,   1.1,   2.0,   0.0,  2.76, 
 02/03/04, 15:00,   2.2,  41,   0.6,   1.1,   2.0,   0.0,  1.63, 
 02/03/04, 16:00,   1.3,  40,   0.6,   1.1,   2.0,   0.0,  1.61, 
 02/03/04, 17:00,   0.6,  45,   0.6,   1.0,   2.0,   0.0,  0.87, 
 02/03/04, 18:00,  -1.6,  61,   0.6,   1.0,   2.0,   0.0,  0.10, 
 02/03/04, 19:00,  -1.3,  58,   0.6,   1.0,   2.0,   0.0,  0.00, 
 02/03/04, 20:00,  -1.4,  58,   0.6,   1.0,   2.0,   0.0,  0.00, 
 02/03/04, 21:00,  -3.8,  71,   0.6,   1.0,   2.0,   0.0,  0.00, 
 02/03/04, 22:00,  -4.4,  73,   0.6,   0.9,   2.0,   0.0,  0.00, 
 02/03/04, 23:00,  -4.6,  65,   0.6,   1.0,   2.0,   0.0,  0.00, 
 02/03/05, 00:00,  -2.7,  50,   0.6,   1.0,   2.0,   0.0,  0.00, 
 02/03/05, 01:00,  -3.1,  57,   0.6,   1.0,   2.0,   0.0,  0.00, 
 02/03/05, 02:00,  -2.6,  58,   0.6,   1.0,   2.0,   0.0,  0.00, 
 02/03/05, 03:00,  -3.8,  58,   0.6,   1.0,   2.0,   0.0,  0.00, 
 02/03/05, 04:00,  -3.3,  48,   0.6,   1.0,   2.0,   0.0,  0.00, 
 02/03/05, 05:00,  -1.7,  23,   0.6,   1.0,   2.0,   0.0,  0.00, 
 02/03/05, 06:00,   0.7,  15,   0.6,   1.0,   2.0,   0.0,  0.00, 
 02/03/05, 07:00,   0.9,  22,   0.6,   1.0,   2.0,   0.0,  0.01, 
 02/03/05, 08:00,   1.4,  17,   0.6,   1.0,   2.0,   0.0,  0.16, 
 02/03/05, 09:00,   2.6,  33,   0.6,   1.0,   2.0,   0.0,  0.23, 
 02/03/05, 10:00,   2.7,  32,   0.6,   1.0,   2.0,   0.0,  0.96, 
 02/03/05, 11:00,   3.1,  32,   0.6,   1.1,   2.0,   0.0,  1.15, 
 02/03/05, 12:00,   2.7,  46,   0.6,   1.0,   2.0,   0.0,  0.84, 
 02/03/05, 13:00,   2.4,  51,   0.6,   1.0,   2.0,   0.0,  0.79, 
 02/03/05, 14:00,   1.9,  64,   0.6,   1.0,   2.0,   0.0,  0.48, 
 02/03/05, 15:00,   1.2,  72,   0.7,   1.0,   2.0,   0.0,  0.28, 
 02/03/05, 16:00,   0.3,  85,   0.7,   1.0,   2.0,   0.0,  0.18, 
 02/03/05, 17:00,   0.5,  97,   0.7,   1.0,   2.0,   0.0,  0.15, 
 02/03/05, 18:00,   0.9,  98,   0.6,   1.0,   2.0,   1.5,  0.00, 
 02/03/05, 19:00,   1.7,  99,   0.6,   1.0,   2.0,   1.5,  0.00, 
 02/03/05, 20:00,   2.3,  99,   0.6,   1.0,   2.0,   2.0,  0.00, 
 02/03/05, 21:00,   2.7,  99,   0.6,   1.0,   1.9,   2.5,  0.00, 
 02/03/05, 22:00,   2.8,  99,   0.6,   0.9,   1.9,   3.0,  0.00, 
 02/03/05, 23:00,   4.4,  99,   0.6,   1.0,   1.9,   2.0,  0.00, 
 02/03/06, 00:00,   5.3,  99,   0.6,   1.0,   1.9,   3.0,  0.00, 
 02/03/06, 01:00,   5.0,  99,   0.6,   1.0,   1.9,   3.0,  0.00, 
 02/03/06, 02:00,   2.6,  99,   0.5,   1.0,   1.9,   6.5,  0.00, 
 02/03/06, 03:00,   5.3,  99,   0.5,   0.9,   1.9,   2.0,  0.00, 
 02/03/06, 04:00,   5.5,  99,   0.5,   0.9,   1.9,   4.5,  0.00, 
 02/03/06, 05:00,   5.3,  99,   0.5,   0.8,   1.9,   3.0,  0.00, 
 02/03/06, 06:00,   4.9,  99,   0.5,   0.9,   1.9,   0.5,  0.00, 
 02/03/06, 07:00,   4.9,  99,   0.5,   0.9,   1.8,   0.5,  0.00, 
 02/03/06, 08:00,   3.3,  99,   0.5,   0.9,   1.8,   0.5,  0.00, 
 02/03/06, 09:00,   2.8,  99,   0.5,   0.8,   1.8,   0.0,  0.04, 
 02/03/06, 10:00,   3.3,  97,   0.5,   0.8,   1.8,   0.0,  0.32, 
 02/03/06, 11:00,   3.3,  97,   0.5,   0.8,   1.8,   0.0,  0.35, 
 02/03/06, 12:00,   3.4,  99,   0.6,   0.8,   1.8,   0.0,  0.43, 
 02/03/06, 13:00,   4.2,  96,   0.6,   0.9,   1.9,   0.0,  0.77, 
 02/03/06, 14:00,   3.5,  89,   0.6,   0.8,   1.8,   0.5,  0.46, 
 02/03/06, 15:00,   2.0,  99,   0.5,   0.8,   1.8,   0.0,  0.34, 
 02/03/06, 16:00,   1.4,  98,   0.5,   0.8,   1.8,   0.0,  0.23, 
 02/03/06, 17:00,  -0.2,  99,   0.5,   0.8,   1.8,   0.0,  0.02, 
 02/03/06, 18:00,  -1.4,  99,   0.5,   0.9,   1.7,   0.0,  0.00, 
 02/03/06, 19:00,  -2.1,  99,   0.5,   0.8,   1.7,   0.0,  0.00, 
 02/03/06, 20:00,  -2.7,  93,   0.5,   0.9,   1.7,   0.0,  0.00, 
 02/03/06, 21:00,  -3.2,  99,   0.5,   0.9,   1.7,   0.0,  0.00, 
 02/03/06, 22:00,  -3.5,  98,   0.5,   0.8,   1.7,   0.5,  0.00, 
 02/03/06, 23:00,  -4.1,  97,   0.5,   0.8,   1.7,   0.5,  0.00, 
 02/03/07, 00:00,  -4.0,  95,   0.5,   0.9,   1.7,   0.0,  0.00, 
 02/03/07, 01:00,  -3.9,  97,   0.5,   0.9,   1.7,   0.0,  0.00, 
 02/03/07, 02:00,  -3.9,  97,   0.5,   0.8,   1.7,   0.0,  0.00, 
 02/03/07, 03:00,  -3.9,  98,   0.5,   0.8,   1.7,   0.0,  0.00, 
 02/03/07, 04:00,  -4.1,  98,   0.5,   0.8,   1.7,   0.0,  0.00, 
 02/03/07, 05:00,  -4.3,  97,   0.5,   0.9,   1.7,   0.0,  0.00, 
 02/03/07, 06:00,  -5.0,  95,   0.5,   0.8,   1.7,   0.5,  0.00, 
 02/03/07, 07:00,  -4.6,  95,   0.5,   0.8,   1.7,   0.0,  0.00, 
 02/03/07, 08:00,  -4.2,  96,   0.5,   0.8,   1.7,   0.0,  0.09, 
 02/03/07, 09:00,  -3.9,  94,   0.5,   0.8,   1.7,   0.5,  0.08, 
 02/03/07, 10:00,  -2.7,  90,   0.5,   0.9,   1.7,   0.0,  0.48, 
 02/03/07, 11:00,  -3.9,  95,   0.5,   0.9,   1.7,   0.5,  0.42, 
 02/03/07, 12:00,  -3.5,  93,   0.5,   0.9,   1.8,   0.0,  0.82, 
 02/03/07, 13:00,  -4.1,  93,   0.6,   0.9,   1.8,   0.0,  0.89, 
 02/03/07, 14:00,  -3.0,  81,   0.6,   0.9,   1.8,   0.5,  1.32, 
 02/03/07, 15:00,  -3.4,  74,   0.6,   0.9,   1.8,   0.0,  1.32, 
 02/03/07, 16:00,  -4.7,  97,   0.6,   0.9,   1.8,   0.5,  0.33, 
 02/03/07, 17:00,  -4.8,  95,   0.6,   0.9,   1.8,   0.5,  0.15, 
 02/03/07, 18:00,  -5.1,  93,   0.5,   0.9,   1.8,   0.5,  0.04, 
 02/03/07, 19:00,  -5.2,  96,   0.5,   0.9,   1.8,   1.0,  0.00, 
 02/03/07, 20:00,  -5.3,  95,   0.5,   0.9,   1.8,   0.5,  0.00, 
 02/03/07, 21:00,  -5.7,  92,   0.5,   0.9,   1.8,   0.5,  0.00, 
 02/03/07, 22:00,  -7.3,  80,   0.5,   0.9,   1.8,   0.5,  0.00, 
 02/03/07, 23:00,  -7.7,  86,   0.5,   0.9,   1.8,   0.0,  0.00, 
 02/03/08, 00:00,  -7.9,  88,   0.5,   0.9,   1.8,   0.0,  0.00, 
 02/03/08, 01:00,  -7.7,  88,   0.5,   0.9,   1.8,   0.0,  0.00, 
 02/03/08, 02:00,  -7.5,  86,   0.5,   0.9,   1.8,   0.0,  0.00, 
 02/03/08, 03:00,  -7.9,  87,   0.5,   0.9,   1.8,   0.0,  0.00, 
 02/03/08, 04:00,  -8.0,  90,   0.5,   0.9,   1.8,   0.0,  0.00, 
 02/03/08, 05:00,  -9.5,  93,   0.5,   0.9,   1.8,   0.0,  0.00, 
 02/03/08, 06:00,  -9.1,  87,   0.5,   0.9,   1.8,   0.0,  0.00, 
 02/03/08, 07:00,  -8.7,  79,   0.5,   0.8,   1.8,   0.5,  0.02, 
 02/03/08, 08:00,  -6.8,  71,   0.5,   0.9,   1.8,   0.0,  0.90, 
 02/03/08, 09:00,  -5.5,  71,   0.5,   0.9,   1.8,   0.0,  1.65, 
 02/03/08, 10:00,  -4.6,  77,   0.5,   0.9,   1.8,   0.0,  2.19, 
 02/03/08, 11:00,  -4.4,  75,   0.5,   0.9,   1.8,   0.0,  2.39, 
 02/03/08, 12:00,  -3.2,  70,   0.5,   0.9,   1.8,   0.0,  1.61, 
 02/03/08, 13:00,  -2.9,  70,   0.4,   0.9,   1.8,   0.0,  1.33, 
 02/03/08, 14:00,  -3.9,  70,   0.4,   0.9,   1.8,   0.0,  1.31, 
 02/03/08, 15:00,  -2.7,  71,   0.4,   0.8,   1.8,   0.0,  2.07, 
 02/03/08, 16:00,  -4.0,  74,   0.4,   0.9,   1.8,   0.0,  1.50, 
 02/03/08, 17:00,  -4.3,  71,   0.4,   0.9,   1.8,   0.0,  1.07, 
 02/03/08, 18:00,  -5.4,  78,   0.4,   0.9,   1.8,   0.0,  0.20, 
 02/03/08, 19:00,  -7.1,  89,   0.4,   0.9,   1.8,   0.0,  0.00, 
 02/03/08, 20:00,  -6.6,  87,   0.4,   0.8,   1.8,   0.0,  0.00, 
 02/03/08, 21:00,  -8.8,  95,   0.4,   0.9,   1.8,   0.0,  0.00, 
 02/03/08, 22:00,  -9.2,  93,   0.4,   0.8,   1.8,   0.0,  0.00, 
 02/03/08, 23:00,  -8.8,  90,   0.4,   0.8,   1.8,   0.0,  0.00, 
 02/03/09, 00:00,  -9.4,  88,   0.4,   0.8,   1.8,   0.0,  0.00, 
 02/03/09, 01:00,  -9.2,  86,   0.4,   0.8,   1.8,   0.0,  0.00, 
 02/03/09, 02:00,  -7.7,  64,   0.4,   0.8,   1.8,   0.0,  0.00, 
 02/03/09, 03:00,  -5.2,  47,   0.4,   0.8,   1.8,   0.0,  0.00, 
 02/03/09, 04:00,  -7.1,  50,   0.4,   0.8,   1.8,   0.0,  0.00, 
 02/03/09, 05:00,  -6.1,  37,   0.3,   0.8,   1.8,   0.0,  0.00, 
 02/03/09, 06:00,  -5.5,  34,   0.3,   0.8,   1.7,   0.0,  0.00, 
 02/03/09, 07:00,  -4.5,  30,   0.3,   0.8,   1.7,   0.0,  0.08, 
 02/03/09, 08:00,  -1.1,  35,   0.4,   0.8,   1.8,   0.0,  0.83, 
 02/03/09, 09:00,   2.7,  15,   0.4,   0.8,   1.8,   0.0,  1.66, 
 02/03/09, 10:00,   4.8,  21,   0.4,   0.9,   1.8,   0.0,  2.32, 
 02/03/09, 11:00,   5.9,  26,   0.4,   0.9,   1.8,   0.0,  2.79, 
 02/03/09, 12:00,   7.6,  25,   0.4,   0.9,   1.8,   0.0,  3.03, 
 02/03/09, 13:00,   7.1,  24,   0.3,   0.9,   1.8,   0.0,  3.07, 
 02/03/09, 14:00,   7.5,  22,   0.3,   0.9,   1.8,   0.0,  2.80, 
 02/03/09, 15:00,   7.8,  21,   0.3,   0.8,   1.8,   0.0,  2.37, 
 02/03/09, 16:00,   6.2,  22,   0.3,   0.8,   1.8,   0.0,  1.70, 
 02/03/09, 17:00,   4.9,  24,   0.3,   0.8,   1.8,   0.0,  0.94, 
 02/03/09, 18:00,   2.8,  21,   0.3,   0.8,   1.8,   0.0,  0.18, 
 02/03/09, 19:00,   1.5,  30,   0.3,   0.8,   1.8,   0.0,  0.00, 
 02/03/09, 20:00,  -0.4,  39,   0.3,   0.8,   1.8,   0.0,  0.00, 
 02/03/09, 21:00,  -1.5,  48,   0.3,   0.8,   1.8,   0.0,  0.00, 
 02/03/09, 22:00,  -1.6,  42,   0.3,   0.8,   1.7,   0.0,  0.00, 
 02/03/09, 23:00,  -1.8,  38,   0.3,   0.8,   1.7,   0.0,  0.00, 
 02/03/10, 00:00,  -0.3,  28,   0.3,   0.8,   1.7,   0.0,  0.00, 
 02/03/10, 01:00,  -1.8,  40,   0.3,   0.8,   1.7,   0.0,  0.00, 
 02/03/10, 02:00,  -0.1,  35,   0.3,   0.8,   1.7,   0.0,  0.00, 
 02/03/10, 03:00,  -0.6,  38,   0.3,   0.8,   1.7,   0.0,  0.00, 
 02/03/10, 04:00,  -1.1,  44,   0.3,   0.7,   1.7,   0.0,  0.00, 
 02/03/10, 05:00,  -1.6,  46,   0.3,   0.8,   1.7,   0.0,  0.00, 
 02/03/10, 06:00,  -2.4,  54,   0.3,   0.8,   1.7,   0.0,  0.00, 
 02/03/10, 07:00,  -1.0,  51,   0.3,   0.8,   1.7,   0.0,  0.09, 
 02/03/10, 08:00,   0.2,  60,   0.3,   0.8,   1.7,   0.0,  0.80, 
 02/03/10, 09:00,   1.8,  51,   0.3,   0.8,   1.7,   0.0,  1.59, 
 02/03/10, 10:00,   4.0,  52,   0.4,   0.8,   1.7,   0.0,  2.23, 
 02/03/10, 11:00,   4.8,  51,   0.3,   0.8,   1.7,   0.0,  2.65, 
 02/03/10, 12:00,   6.5,  49,   0.3,   0.8,   1.7,   0.0,  2.92, 
 02/03/10, 13:00,   6.9,  49,   0.3,   0.8,   1.7,   0.0,  2.78, 
 02/03/10, 14:00,   5.5,  55,   0.3,   0.8,   1.7,   0.0,  0.85, 
 02/03/10, 15:00,   3.5,  65,   0.3,   0.8,   1.7,   0.0,  0.32, 
 02/03/10, 16:00,   2.4,  82,   0.3,   0.8,   1.7,   0.0,  0.11, 
 02/03/10, 17:00,   2.0,  89,   0.3,   0.8,   1.7,   0.0,  0.02, 
 02/03/10, 18:00,   1.1,  99,   0.3,   0.8,   1.7,   0.0,  0.00, 
 02/03/10, 19:00,   0.9,  99,   0.3,   0.8,   1.7,   0.0,  0.00, 
 02/03/10, 20:00,   0.9,  99,   0.3,   0.8,   1.7,   0.0,  0.00, 
 02/03/10, 21:00,   0.8,  99,   0.3,   0.8,   1.7,   0.0,  0.00, 
 02/03/10, 22:00,   0.0,  99,   0.3,   0.8,   1.7,   3.0,  0.00, 
 02/03/10, 23:00,   0.2,  99,   0.3,   0.8,   1.7,   0.5,  0.00, 
 02/03/11, 00:00,  -0.4,  99,   0.3,   0.8,   1.7,   1.0,  0.00, 
 02/03/11, 01:00,  -0.7,  92,   0.3,   0.8,   1.7,   0.5,  0.00, 
 02/03/11, 02:00,  -1.4,  93,   0.3,   0.8,   1.7,   0.0,  0.00, 
 02/03/11, 03:00,  -2.3,  93,   0.3,   0.8,   1.7,   0.0,  0.00, 
 02/03/11, 04:00,  -2.6,  92,   0.3,   0.8,   1.7,   0.0,  0.00, 
 02/03/11, 05:00,  -3.3,  91,   0.4,   0.8,   1.7,   0.0,  0.00, 
 02/03/11, 06:00,  -3.8,  93,   0.4,   0.8,   1.7,   0.0,  0.00, 
 02/03/11, 07:00,  -4.3,  89,   0.3,   0.7,   1.7,   0.0,  0.04, 
 02/03/11, 08:00,  -3.4,  92,   0.4,   0.8,   1.7,   0.0,  0.52, 
 02/03/11, 09:00,  -3.4,  84,   0.4,   0.8,   1.7,   0.0,  1.05, 
 02/03/11, 10:00,  -1.2,  80,   0.4,   0.8,   1.7,   0.0,  1.48, 
 02/03/11, 11:00,   0.6,  53,   0.4,   0.8,   1.7,   0.0,  1.74, 
 02/03/11, 12:00,   1.1,  41,   0.4,   0.8,   1.7,   0.0,  2.06, 
 02/03/11, 13:00,   2.4,  39,   0.3,   0.8,   1.7,   0.0,  2.25, 
 02/03/11, 14:00,   2.3,  32,   0.3,   0.8,   1.7,   0.0,  2.05, 
 02/03/11, 15:00,   2.8,  41,   0.3,   0.8,   1.7,   0.0,  2.04, 
 02/03/11, 16:00,   2.9,  29,   0.4,   0.8,   1.7,   0.0,  1.80, 
 02/03/11, 17:00,   2.6,  28,   0.4,   0.9,   1.7,   0.0,  1.02, 
 02/03/11, 18:00,   1.0,  33,   0.4,   0.8,   1.7,   0.0,  0.19, 
 02/03/11, 19:00,   1.1,  30,   0.5,   0.8,   1.7,   0.0,  0.00, 
 02/03/11, 20:00,  -1.4,  47,   0.5,   0.9,   1.7,   0.0,  0.00, 
 02/03/11, 21:00,  -1.8,  51,   0.5,   1.0,   1.7,   0.0,  0.00, 
 02/03/11, 22:00,   0.2,  37,   0.5,   0.9,   1.7,   0.0,  0.00, 
 02/03/11, 23:00,   0.8,  35,   0.5,   1.0,   1.7,   0.0,  0.00, 
 02/03/12, 00:00,   0.4,  42,   0.5,   0.9,   1.7,   0.0,  0.00, 
 02/03/12, 01:00,   1.1,  41,   0.5,   1.0,   1.7,   0.0,  0.00, 
 02/03/12, 02:00,  -0.2,  50,   0.5,   1.0,   1.7,   0.0,  0.00, 
 02/03/12, 03:00,  -0.1,  45,   0.5,   1.0,   1.7,   0.0,  0.00, 
 02/03/12, 04:00,   1.0,  38,   0.5,   1.0,   1.7,   0.0,  0.00, 
 02/03/12, 05:00,   1.5,  38,   0.5,   1.0,   1.7,   0.0,  0.00, 
 02/03/12, 06:00,   1.0,  39,   0.5,   1.0,   1.7,   0.0,  0.00, 
 02/03/12, 07:00,   0.6,  41,   0.5,   0.9,   1.7,   0.0,  0.10, 
 02/03/12, 08:00,   1.7,  49,   0.5,   0.9,   1.7,   0.0,  0.83, 
 02/03/12, 09:00,   2.5,  54,   0.5,   1.0,   1.7,   0.0,  1.56, 
 02/03/12, 10:00,   4.7,  50,   0.5,   1.0,   1.7,   0.0,  2.17, 
 02/03/12, 11:00,   5.4,  39,   0.5,   1.0,   1.7,   0.0,  2.60, 
 02/03/12, 12:00,   6.0,  44,   0.5,   1.0,   1.8,   0.0,  2.80, 
 02/03/12, 13:00,   6.2,  46,   0.5,   1.0,   1.8,   0.0,  2.48, 
 02/03/12, 14:00,   4.0,  55,   0.5,   1.0,   1.8,   0.5,  1.03, 
 02/03/12, 15:00,   3.5,  63,   0.6,   1.0,   1.8,   0.0,  0.70, 
 02/03/12, 16:00,   2.6,  69,   0.6,   1.0,   1.7,   0.0,  0.50, 
 02/03/12, 17:00,   0.5,  91,   0.7,   1.0,   1.8,   0.0,  0.16, 
 02/03/12, 18:00,   0.0,  91,   0.7,   1.0,   1.7,   0.0,  0.08, 
 02/03/12, 19:00,  -0.5,  91,   0.7,   1.0,   1.7,   0.0,  0.00, 
 02/03/12, 20:00,  -0.9,  89,   0.7,   1.0,   1.7,   0.0,  0.00, 
 02/03/12, 21:00,  -1.0,  81,   0.7,   1.1,   1.7,   0.0,  0.00, 
 02/03/12, 22:00,  -1.0,  62,   0.7,   1.1,   1.7,   0.0,  0.00, 
 02/03/12, 23:00,  -2.8,  95,   0.7,   1.1,   1.8,   0.0,  0.00, 
 02/03/13, 00:00,  -3.9,  98,   0.7,   1.1,   1.8,   0.0,  0.00, 
 02/03/13, 01:00,  -3.9,  88,   0.7,   1.1,   1.8,   0.0,  0.00, 
 02/03/13, 02:00,  -4.2,  81,   0.7,   1.1,   1.8,   0.0,  0.00, 
 02/03/13, 03:00,  -5.3,  94,   0.7,   1.1,   1.8,   0.0,  0.00, 
 02/03/13, 04:00,  -5.5,  84,   0.7,   1.1,   1.8,   0.0,  0.00, 
 02/03/13, 05:00,  -4.5,  73,   0.6,   1.1,   1.8,   0.0,  0.00, 
 02/03/13, 06:00,  -4.9,  78,   0.6,   1.1,   1.8,   0.0,  0.00, 
 02/03/13, 07:00,  -4.4,  80,   0.6,   1.0,   1.7,   0.0,  0.17, 
 02/03/13, 08:00,  -3.5,  73,   0.6,   1.0,   1.8,   0.0,  1.17, 
 02/03/13, 09:00,  -2.1,  68,   0.6,   1.0,   1.8,   0.0,  1.97, 
 02/03/13, 10:00,  -0.4,  64,   0.6,   1.0,   1.8,   0.0,  2.60, 
 02/03/13, 11:00,   1.3,  60,   0.6,   1.0,   1.8,   0.0,  2.94, 
 02/03/13, 12:00,   2.9,  53,   0.5,   1.0,   1.8,   0.0,  3.05, 
 02/03/13, 13:00,   3.9,  46,   0.6,   1.0,   1.8,   0.0,  3.06, 
 02/03/13, 14:00,   5.2,  47,   0.7,   1.0,   1.8,   0.0,  2.82, 
 02/03/13, 15:00,   5.5,  44,   0.8,   1.0,   1.8,   0.0,  2.36, 
 02/03/13, 16:00,   4.3,  44,   1.0,   1.0,   1.8,   0.0,  1.73, 
 02/03/13, 17:00,   3.6,  42,   1.1,   1.2,   1.8,   0.0,  0.95, 
 02/03/13, 18:00,   2.0,  41,   1.2,   1.2,   1.8,   0.0,  0.21, 
 02/03/13, 19:00,  -0.4,  59,   1.2,   1.2,   1.8,   0.0,  0.00, 
 02/03/13, 20:00,  -0.9,  58,   1.2,   1.3,   1.8,   0.0,  0.00, 
 02/03/13, 21:00,  -0.4,  57,   1.2,   1.3,   1.8,   0.0,  0.00, 
 02/03/13, 22:00,   0.8,  54,   1.1,   1.4,   1.8,   0.0,  0.00, 
 02/03/13, 23:00,   0.6,  56,   1.1,   1.4,   1.8,   0.0,  0.00, 
 02/03/14, 00:00,  -0.5,  58,   1.1,   1.4,   1.8,   0.0,  0.00, 
 02/03/14, 01:00,  -1.3,  59,   1.0,   1.4,   1.8,   0.0,  0.00, 
 02/03/14, 02:00,  -1.9,  56,   1.0,   1.4,   1.8,   0.0,  0.00, 
 02/03/14, 03:00,  -2.3,  50,   0.9,   1.4,   1.8,   0.0,  0.00, 
 02/03/14, 04:00,  -0.7,  30,   0.9,   1.3,   1.8,   0.0,  0.00, 
 02/03/14, 05:00,  -0.5,  31,   0.9,   1.3,   1.9,   0.0,  0.00, 
 02/03/14, 06:00,  -0.9,  43,   0.8,   1.3,   1.9,   0.0,  0.00, 
 02/03/14, 07:00,  -0.3,  44,   0.7,   1.3,   1.9,   0.0,  0.11, 
 02/03/14, 08:00,   2.6,  30,   0.8,   1.3,   1.9,   0.0,  0.89, 
 02/03/14, 09:00,   4.8,  31,   0.7,   1.3,   1.9,   0.0,  1.61, 
 02/03/14, 10:00,   5.9,  42,   0.7,   1.2,   1.9,   0.0,  1.81, 
 02/03/14, 11:00,   7.0,  40,   0.7,   1.3,   1.9,   0.0,  2.20, 
 02/03/14, 12:00,   8.6,  35,   0.7,   1.2,   1.9,   0.0,  2.26, 
 02/03/14, 13:00,   8.3,  35,   0.8,   1.2,   1.9,   0.0,  2.02, 
 02/03/14, 14:00,   8.2,  35,   0.9,   1.3,   1.9,   0.0,  1.96, 
 02/03/14, 15:00,   7.2,  36,   1.0,   1.2,   1.9,   0.0,  1.71, 
 02/03/14, 16:00,   6.8,  36,   1.2,   1.2,   1.9,   0.0,  0.84, 
 02/03/14, 17:00,   6.0,  40,   1.3,   1.3,   1.9,   0.0,  0.29, 
 02/03/14, 18:00,   4.8,  44,   1.3,   1.4,   1.9,   0.0,  0.03, 
 02/03/14, 19:00,   5.1,  40,   1.3,   1.4,   1.9,   0.0,  0.00, 
 02/03/14, 20:00,   4.1,  49,   1.3,   1.4,   1.9,   0.0,  0.00, 
 02/03/14, 21:00,   3.5,  57,   1.3,   1.6,   1.9,   0.0,  0.00, 
 02/03/14, 22:00,   3.0,  58,   1.3,   1.6,   1.9,   0.0,  0.00, 
 02/03/14, 23:00,   2.9,  61,   1.3,   1.6,   1.9,   0.0,  0.00, 
 02/03/15, 00:00,   3.8,  61,   1.3,   1.5,   1.9,   0.0,  0.00, 
 02/03/15, 01:00,   2.9,  90,   1.3,   1.6,   1.9,   0.0,  0.00, 
 02/03/15, 02:00,   3.6,  91,   1.3,   1.6,   1.9,   0.0,  0.00, 
 02/03/15, 03:00,   4.5,  97,   1.1,   1.6,   1.9,   1.5,  0.00, 
 02/03/15, 04:00,   4.6,  99,   1.1,   1.6,   1.9,   1.5,  0.00, 
 02/03/15, 05:00,   5.0,  99,   1.1,   1.6,   2.0,   0.5,  0.00, 
 02/03/15, 06:00,   5.7,  99,   1.1,   1.5,   1.9,   1.0,  0.00, 
 02/03/15, 07:00,   5.3,  99,   1.3,   1.5,   1.9,   1.5,  0.00, 
 02/03/15, 08:00,   6.2,  99,   1.3,   1.6,   1.9,   0.0,  0.13, 
 02/03/15, 09:00,   6.9,  99,   1.3,   1.6,   1.9,   0.0,  0.17, 
 02/03/15, 10:00,   6.8,  99,   1.4,   1.6,   1.9,   0.5,  0.10, 
 02/03/15, 11:00,   6.3,  99,   1.5,   1.7,   1.9,   1.0,  0.13, 
 02/03/15, 12:00,   6.3,  99,   1.5,   1.7,   1.9,   0.0,  0.20, 
 02/03/15, 13:00,   6.6,  99,   1.6,   1.7,   1.9,   0.5,  0.37, 
 02/03/15, 14:00,   5.4,  99,   1.7,   1.7,   1.9,   0.0,  0.21, 
 02/03/15, 15:00,   4.2,  99,   1.8,   1.8,   1.9,   0.0,  0.16, 
 02/03/15, 16:00,   4.1,  94,   1.8,   1.8,   1.9,   0.0,  0.27, 
 02/03/15, 17:00,   3.3,  94,   1.9,   1.8,   1.9,   0.0,  0.15, 
 02/03/15, 18:00,   2.2,  98,   1.9,   1.9,   1.9,   0.0,  0.00, 
 02/03/15, 19:00,   2.0,  99,   1.9,   1.9,   1.9,   0.5,  0.00, 
 02/03/15, 20:00,   1.4,  99,   1.8,   1.9,   1.9,   0.0,  0.00, 
 02/03/15, 21:00,   0.9,  99,   1.8,   1.9,   2.0,   0.0,  0.00, 
 02/03/15, 22:00,   0.2,  99,   1.7,   2.0,   2.0,   2.0,  0.00, 
 02/03/15, 23:00,   0.6,  92,   1.6,   2.0,   2.0,   0.5,  0.00, 
 02/03/16, 00:00,  -0.1,  94,   1.6,   2.0,   2.0,   0.0,  0.00, 
 02/03/16, 01:00,   0.2,  89,   1.5,   1.9,   2.0,   0.0,  0.00, 